Home   Weather   Chernobyl   Past weeks

Flag for Ukraine Past Weather in Chernobyl, Ukraine — Yesterday and Last 2 Weeks

Now
63 °F

Fog.


Feels Like: 63 °F
Forecast: 64 / 73 °F
Wind: 1 mph from North

Location: Hostomel

Current Time: Jul 27, 2017 at 11:55:04 pm

Latest Report: Jul 27, 2017 at 11:30 pm


Visibility: 0 mi

Pressure: 29.74 "Hg

Humidity: 100%

Dew Point: 63 °F

Location of ChernobylLocation

Past Weather in Chernobyl — Graph

°F

Chernobyl Temperature Yesterday

Maximum temperature yesterday: 82 °F (at 2:00 pm)
Minimum temperature yesterday: 68 °F (at 11:00 pm)
Average temperature yesterday: 75 °F

High & Low Weather Summary for the Past Weeks

 TemperatureHumidityPressure
High90 °F (Jul 21, 4:30 pm)100% (Jul 13, 2:30 pm)30.15 "Hg (Jul 13, 2:30 pm)
Low46 °F (Jul 16, 5:30 am)30% (Jul 17, 4:00 pm)29.56 "Hg (Jul 26, 4:30 am)
Average69 °F63%29.90 "Hg
* Reported Jul 12 10:00 pm — Jul 27 10:30 pm, Chernobyl. Weather by CustomWeather, © 2017

Note: Actual official high and low records may vary slightly from our data, if they occured in-between our weather recording intervals... More about our weather records

Advertising

Chernobyl Weather History for the Previous 24 Hours

Scroll right to see more
 ConditionsComfort  
Time TempWeatherWind HumidityBarometerVisibility
10:30 pm
Thu, Jul 27
63 °FMild.No wind100%29.74 "Hg2 mi
10:00 pm63 °FMild.1 mph100%29.74 "Hg3 mi
9:30 pm63 °FMild.No wind100%29.74 "Hg3 mi
9:00 pm64 °FMild.1 mph100%29.74 "Hg5 mi
8:30 pm66 °FMild.3 mph94%29.74 "Hg6 mi
8:00 pm66 °FMild.No wind94%29.74 "HgN/A
7:30 pm66 °FMild.3 mph94%29.74 "Hg6 mi
7:00 pm66 °FThundershowers. Passing clouds.3 mph88%29.74 "Hg6 mi
6:30 pm63 °FThunderstorms. Partly sunny.10 mph100%29.77 "Hg3 mi
6:00 pm68 °FLots of rain. Partly sunny.10 mph88%29.77 "Hg1 mi
5:30 pm77 °FThundershowers. Passing clouds.6 mph65%29.71 "HgN/A
5:00 pm77 °FPassing clouds.8 mph69%29.71 "HgN/A
4:30 pm79 °FPartly sunny.6 mph61%29.71 "HgN/A
4:00 pm79 °FPassing clouds.6 mph61%29.71 "HgN/A
3:30 pm79 °FPassing clouds.8 mph65%29.74 "HgN/A
3:00 pm75 °FPassing clouds.8 mph69%29.74 "HgN/A
2:30 pm75 °FPassing clouds.6 mph69%29.74 "HgN/A
2:00 pm75 °FPassing clouds.6 mph69%29.74 "HgN/A
1:30 pm75 °FPassing clouds.6 mph69%29.74 "HgN/A
1:00 pm75 °FPassing clouds.6 mph74%29.74 "HgN/A
12:30 pm73 °FPassing clouds.6 mph74%29.77 "HgN/A
12:00 pm73 °FScattered clouds.6 mph74%29.77 "HgN/A
11:30 am73 °FScattered clouds.8 mph69%29.77 "HgN/A
11:00 am70 °FPassing clouds.6 mph83%29.77 "HgN/A
10:30 am68 °FSprinkles. Broken clouds.8 mph88%29.77 "HgN/A
10:00 am68 °FSprinkles. Broken clouds.No wind83%29.77 "HgN/A
9:30 am68 °FPassing clouds.3 mph88%29.77 "HgN/A
9:00 am66 °FScattered clouds.6 mph94%29.77 "HgN/A
8:30 am64 °FPassing clouds.1 mph100%29.77 "HgN/A
8:00 am64 °FPartly sunny.1 mph94%29.77 "Hg4 mi
7:30 am63 °FScattered clouds.No wind100%29.77 "Hg4 mi
7:00 am63 °FFog.No wind100%29.74 "Hg2 mi
6:30 am63 °FMild.1 mph100%29.74 "Hg3 mi
6:00 am63 °FPassing clouds.1 mph100%29.74 "Hg6 mi
5:30 am63 °FThundershowers. Passing clouds.No wind100%29.74 "Hg3 mi
5:00 am63 °FPassing clouds.1 mph100%29.74 "Hg3 mi
4:30 am63 °FSprinkles. Passing clouds.3 mph100%29.74 "Hg5 mi
4:00 am63 °FSprinkles. Passing clouds.3 mph100%29.74 "Hg6 mi
3:30 am64 °FThundershowers. Passing clouds.3 mph94%29.74 "Hg5 mi
3:00 am64 °FThundershowers. Passing clouds.3 mph94%29.74 "Hg6 mi
2:30 am64 °FThunderstorms. Passing clouds.3 mph94%29.74 "Hg1 mi
2:00 am64 °FThunderstorms. Passing clouds.6 mph94%29.71 "HgN/A
1:30 am64 °FThundershowers. Passing clouds.3 mph94%29.74 "Hg6 mi
1:00 am64 °FPassing clouds.1 mph94%29.74 "Hg6 mi
12:30 am64 °FThunderstorms. Passing clouds.3 mph94%29.74 "Hg6 mi
12:00 am66 °FThunderstorms. Passing clouds.3 mph88%29.71 "HgN/A
11:30 pm
Wed, Jul 26
68 °FThunderstorms. Passing clouds.1 mph73%29.71 "HgN/A
11:00 pm68 °FPassing clouds.3 mph73%29.71 "Hg6 mi
Weather by CustomWeather, © 2017

See weather overviewHow to use our weather pages